Regional Weather Roundup
Issued by NWS State College, PA

Home | Current Version | Previous Version | Graphics & Text | Print | Product List | Glossary Off
Versions: 1 2 3 4 5 6 7 8 9 10 11 12 13 14 15 16 17 18 19 20 21 22 23 24 25 26 27 28 29 30 31 32 33 34 35 36 37 38 39 40 41 42 43 44 45 46 47 48 49 50

000
ASUS41 KCTP 300503
RWRCTP

REGIONAL WEATHER ROUNDUP
NATIONAL WEATHER SERVICE STATE COLLEGE PA
100 AM EDT SUN AUG 30 2015

Note: "fair" indicates few or no clouds below 12,000 feet with no
significant weather and/or obstructions to visibility.

* = STATION THAT DOES NOT REPORT PRECIPITATION /E.G. RAIN...SNOW...ETC/
    THUNDER OR FOG.

PAZ002>004-007>009-013>016-020>023-029>032-300600-
WESTERN PENNSYLVANIA

CITY           SKY/WX    TMP DP  RH WIND       PRES   REMARKS
ERIE           CLOUDY    69  63  81 S3        30.07F
MEADVILLE      CLOUDY    69  63  81 CALM      30.11S
FRANKLIN*      CLOUDY    66  63  88 CALM      30.14F
NEW CASTLE     FAIR      67  67 100 CALM      30.10S FOG
BEAVER COUNTY  NOT AVBL
BUTLER*        CLEAR     66  61  82 CALM      30.12R
PITTSBURGH INT PTCLDY    73  61  65 SW5       30.10S
PITTSBURGH     PTCLDY    71  58  63 S6        30.10S
INDIANA*       MOCLDY    66  61  82 CALM      30.15S
LATROBE        NOT AVBL
WASHINGTON CO* CLEAR     63  61  94 CALM      30.12R
$$

PAZ004>006-010>012-017>019-024>028-033>037-041-042-045-046-049>053-300600-
CENTRAL PENNSYLVANIA

CITY           SKY/WX    TMP DP  RH WIND       PRES   REMARKS
BRADFORD       CLOUDY    62  56  80 NW3       30.16R
DUBOIS         PTCLDY    64  59  83 CALM      30.12F
CLEARFIELD     PTCLDY    60  57  89 N6        30.14S
JOHNSTOWN      CLEAR     68  53  58 S7        30.16F
ALTOONA        CLEAR     60  56  86 CALM      30.14F
STATE COLLEGE  PTCLDY    61  59  94 CALM      30.12F
WILLIAMSPORT   PTCLDY    63  59  87 CALM      30.10S
SELINSGROVE    CLEAR     60  58  92 CALM      30.11F FOG
FT INDIANTOWN  PTCLDY    64  64  97 NE2       30.12S
CAPITAL CITY   MOCLDY    69  64  84 SW3       30.11S
HARRISBURG     MOCLDY    70  65  84 E3        30.10S
YORK           MOCLDY    66  63  90 CALM      30.11F
$$

PAZ038>040-043-044-047-048-054-055-060>062-067>071-300600-
EASTERN PENNSYLVANIA

CITY           SKY/WX    TMP DP  RH WIND       PRES   REMARKS
SCRANTON       PTCLDY    64  58  80 E5        30.13R
MOUNT POCONO   CLEAR     60  58  92 W5        30.17S
ALLENTOWN      PTCLDY    67  63  87 CALM      30.12S
QUAKERTOWN*    MOCLDY    64  63  94 CALM      30.14S
READING        PTCLDY    67  63  87 NW3       30.11S
LANCASTER      MOCLDY    67  63  87 NE3       30.12F
COATESVILLE    PTCLDY    66  64  94 CALM      30.14F
POTTSTOWN      MOCLDY    66  64  93 CALM      30.14S
BLUE BELL      MOCLDY    70  64  83 CALM      30.13S
DOYLESTOWN     MOCLDY    67  61  81 S3        30.13R
WILLOW GROVE   NOT AVBL
NORTH PHILA    MOCLDY    74  60  61 SW6       30.14S
PHILADELPHIA   MOCLDY    74  62  66 SW6       30.13S
$$



USA.gov is the U.S. government's official web portal to all federal, state and local government web resources and services.